Flag for Germany Weather past 2 weeks in Recklinghausen, North Rhine-Westphalia, Germany

Now
72 °F

Scattered clouds.


Feels Like: 75 °F
Forecast: 64 / 80 °F
Wind: 7 mph from Northeast

Location: Dortmund / Wickede

Current Time: Jul 28, 2014 at 11:03:50 AM

Latest Report: Jul 28, 2014 at 10:20 AM


Visibility: 6 mi

Pressure: 29.89 "Hg

Humidity: 69%

Dew point: 61 °F

Location of RecklinghausenLocation

Historic Weather in Recklinghausen — Graph

°F

Recklinghausen temperature yesterday

Maximum temperature yesterday: 79 °F (at 5:20 PM)
Minimum temperature yesterday: 61 °F (at 5:20 AM)
Average temperature yesterday: 70 °F

Past Weeks' High & Low Weather Summary

 TemperatureHumidityPressure
High90 °F (Jul 19, 1:20 PM)100% (Jul 21, 12:50 PM)30.18 "Hg (Jul 21, 12:50 PM)
Low55 °F (Jul 15, 5:20 AM)22% (Jul 19, 2:50 PM)29.71 "Hg (Jul 13, 6:50 PM)
Average71 °F65%29.98 "Hg
* Reported Jul 13 9:20 AM — Jul 28 9:50 AM, Recklinghausen, Weather by CustomWeather, © 2014

Note: Actual official high and low records may vary slightly from our data, if they occured in-between our weather recording intervals... More about our weather records

Advertising

Recklinghausen weather history for previous 24 hours

 ConditionsComfort  
Time TempWeatherWind HumidityBarometerVisibility
9:50 AM
Jul 28
70 °FPartly sunny.8 mph73%29.92 "Hg5 mi
9:20 AM68 °FClear.6 mph78%29.92 "Hg6 mi
8:50 AM66 °FClear.7 mph83%29.92 "Hg5 mi
8:20 AM66 °FClear.5 mph83%29.92 "Hg6 mi
7:50 AM66 °FClear.3 mph78%29.92 "Hg5 mi
7:20 AM66 °FSunny.2 mph83%29.92 "Hg10 mi
6:50 AM63 °FSunny.2 mph88%29.92 "Hg10 mi
6:20 AM63 °FClear.3 mph88%29.92 "Hg10 mi
5:50 AM61 °FClear.2 mph88%29.92 "Hg6 mi
5:20 AM61 °FCool.5 mph88%29.92 "Hg4 mi
10:50 PM
Jul 27
64 °FClear.2 mph83%30.01 "Hg10 mi
10:20 PM68 °FSunny.1 mph73%30.01 "Hg10 mi
9:50 PM68 °FSunny.1 mph73%30.01 "Hg10 mi
9:20 PM68 °FSunny.1 mph69%30.01 "Hg10 mi
8:50 PM73 °FSunny.3 mph57%29.98 "Hg10 mi
8:20 PM75 °FSunny.3 mph54%29.98 "Hg10 mi
7:50 PM77 °FSunny.3 mph51%29.98 "Hg10 mi
7:20 PM77 °FPassing clouds.5 mph51%29.98 "HgN/A
6:50 PM77 °FScattered clouds.5 mph51%29.98 "HgN/A
6:20 PM77 °FPassing clouds.6 mph51%29.98 "HgN/A
5:50 PM77 °FPassing clouds.6 mph47%29.98 "HgN/A
5:20 PM79 °FPartly sunny.6 mph48%29.98 "HgN/A
4:50 PM75 °FScattered clouds.6 mph54%29.98 "HgN/A
4:20 PM75 °FScattered clouds.5 mph54%30.01 "HgN/A
3:50 PM77 °FScattered clouds.7 mph54%30.01 "HgN/A
3:20 PM77 °FScattered clouds.8 mph51%30.01 "HgN/A
2:50 PM73 °FScattered clouds.5 mph57%30.01 "HgN/A
2:20 PM73 °FPartly sunny.6 mph57%30.01 "HgN/A
1:50 PM73 °FScattered clouds.9 mph61%30.01 "HgN/A
1:20 PM72 °FScattered clouds.8 mph69%30.04 "HgN/A
12:50 PM70 °FPartly sunny.9 mph73%30.04 "Hg4 mi
12:20 PM70 °FFog.9 mph78%30.04 "Hg1 mi
11:50 AM68 °FFog.10 mph78%30.04 "Hg2 mi
11:20 AM68 °FFog.9 mph83%30.01 "Hg1 mi
Weather by CustomWeather, © 2014

See weather overviewHow to use our weather pages